IW2GOB-3 Weather Reports


time (UTC)temp
F
wind
direction
speed
knots
gust
knots
rain 1hr
in
rain 24hr
in
rain mn
in
humidity
%
barometer
mb
20260507002525 57 338 2.6 4.3 0.00 0.48 0.00 79 1010.2
20260507001525 57 326 1.7 4.3 0.00 0.48 0.00 79 1010.2
20260507000525 57 331 1.7 2.6 0.00 0.48 0.00 80 1010.3
20260506235525 56 335 2.6 2.6 0.00 0.48 0.00 80 1010.3
20260506234525 56 324 0.9 2.6 0.00 0.48 0.00 80 1010.2
20260506233525 56 326 2.6 2.6 0.00 0.48 0.00 81 1010.1
20260506232525 56 324 0.9 2.6 0.00 0.48 0.00 81 1010.0
20260506231525 56 338 0.9 2.6 0.00 0.48 0.00 82 1010.0
20260506230525 56 328 0.9 2.6 0.00 0.48 0.00 82 1009.8
20260506225525 56 304 0.9 0.9 0.00 0.48 0.00 82 1009.7
20260506224525 56 265 0.0 0.9 0.00 0.48 0.00 82 1009.7
20260506223525 56 265 0.9 0.9 0.00 0.48 0.00 81 1009.7
20260506222525 56 265 0.0 0.0 0.00 0.48 0.00 81 1009.8
20260506221525 56 265 0.9 0.9 0.00 0.48 0.00 80 1009.9
20260506220525 56 321 0.0 0.9 0.00 0.48 0.00 80 1009.9
20260506215525 57 323 0.9 1.7 0.00 0.48 0.48 80 1009.8
20260506214525 57 321 0.0 0.9 0.00 0.48 0.48 80 1009.8
20260506213525 57 327 0.9 0.9 0.00 0.48 0.48 80 1009.5
20260506212525 57 16 0.9 0.9 0.00 0.48 0.48 79 1009.7
20260506211525 57 351 0.9 1.7 0.00 0.48 0.48 79 1009.5
20260506210525 57 12 0.9 1.7 0.00 0.48 0.48 79 1009.5
20260506205525 57 0 0.0 2.6 0.00 0.48 0.48 79 1009.5
20260506204525 57 0 0.0 2.6 0.00 0.48 0.48 79 1009.4
20260506203525 57 354 0.9 2.6 0.00 0.48 0.48 79 1009.3
20260506202525 57 5 1.7 2.6 0.00 0.48 0.48 79 1009.3
20260506201525 57 1 1.7 2.6 0.00 0.48 0.48 79 1009.1
20260506200525 57 14 1.7 2.6 0.00 0.48 0.48 79 1009.0
20260506195525 57 352 1.7 2.6 0.00 0.48 0.48 79 1009.0
20260506194525 57 352 2.6 5.2 0.00 0.49 0.48 79 1009.0
20260506193525 58 352 2.6 4.3 0.00 0.49 0.48 79 1009.0
20260506192525 58 333 1.7 2.6 0.00 0.50 0.48 79 1008.5
20260506191526 58 351 2.6 4.3 0.00 0.50 0.48 78 1008.6
20260506190525 58 343 1.7 4.3 0.00 0.50 0.48 78 1008.6
20260506185525 59 356 1.7 2.6 0.00 0.50 0.48 77 1008.4
20260506184525 59 319 1.7 5.2 0.00 0.50 0.48 76 1008.3
20260506183525 60 344 2.6 2.6 0.00 0.50 0.48 76 1008.0
20260506182525 60 19 4.3 4.3 0.00 0.50 0.48 75 1007.7
20260506181525 60 23 4.3 6.1 0.00 0.50 0.48 75 1007.6
20260506180525 61 334 2.6 2.6 0.00 0.50 0.48 74 1007.4
20260506175525 61 24 4.3 6.1 0.00 0.50 0.48 73 1007.1
20260506174525 61 22 2.6 5.2 0.00 0.50 0.48 73 1007.0
20260506173525 62 7 2.6 4.3 0.00 0.50 0.48 73 1006.9
20260506172525 62 0 0.0 6.1 0.00 0.50 0.48 72 1006.7
20260506171525 63 14 4.3 7.8 0.00 0.50 0.48 71 1006.6
20260506170525 63 327 5.2 8.7 0.00 0.50 0.48 70 1006.5
20260506165525 64 359 6.1 11.3 0.00 0.50 0.48 68 1006.2
20260506164525 65 2 7.0 13.0 0.00 0.50 0.48 65 1005.8
20260506163525 70 338 8.7 13.9 0.00 0.50 0.48 56 1005.4
20260506162525 74 276 2.6 5.2 0.00 0.50 0.48 46 1005.1
20260506161525 74 255 5.2 7.0 0.00 0.50 0.48 46 1004.8
20260506160525 74 243 4.3 5.2 0.00 0.50 0.48 47 1004.8
20260506155525 74 228 4.3 5.2 0.00 0.50 0.48 47 1004.8
20260506154525 74 203 2.6 8.7 0.00 0.50 0.48 50 1004.8
20260506153525 72 149 2.6 4.3 0.00 0.50 0.48 58 1004.9
20260506152525 72 87 2.6 4.3 0.00 0.50 0.48 64 1004.9
20260506151525 72 129 7.0 8.7 0.00 0.50 0.48 66 1005.1
20260506150525 72 113 2.6 6.1 0.00 0.50 0.48 67 1005.1
20260506145525 71 100 7.0 11.3 0.00 0.50 0.48 69 1005.2
20260506144525 71 116 6.1 10.4 0.00 0.50 0.48 70 1005.4
20260506143525 71 128 7.8 11.3 0.00 0.50 0.48 69 1005.4
20260506142525 70 105 4.3 5.2 0.00 0.50 0.48 75 1005.4
20260506141525 69 124 5.2 12.2 0.00 0.50 0.48 75 1005.7
20260506140525 69 139 2.6 7.0 0.00 0.50 0.48 75 1006.0
20260506135525 69 103 2.6 4.3 0.00 0.50 0.48 74 1006.2
20260506134525 69 136 4.3 7.8 0.00 0.50 0.48 73 1006.3
20260506133525 69 126 4.3 6.1 0.00 0.50 0.48 74 1006.4
20260506132525 68 115 5.2 8.7 0.00 0.50 0.48 75 1006.4
20260506131525 68 120 6.1 12.2 0.00 0.51 0.48 75 1006.6
20260506130525 68 128 6.1 10.4 0.00 0.51 0.48 76 1006.7
20260506125525 68 128 5.2 6.1 0.00 0.51 0.48 76 1006.8
20260506124525 68 143 6.1 10.4 0.00 0.51 0.48 76 1006.9
20260506123525 68 85 4.3 7.8 0.00 0.51 0.48 77 1006.8
20260506122524 67 144 6.1 10.4 0.00 0.51 0.48 77 1006.8
20260506121524 66 148 4.3 5.2 0.00 0.51 0.48 82 1007.0
20260506120524 65 122 6.1 7.8 0.00 0.51 0.48 83 1007.2
20260506115525 64 135 7.0 11.3 0.00 0.51 0.48 86 1007.1
20260506114524 64 100 5.2 7.8 0.00 0.51 0.48 86 1007.2
20260506113524 64 85 4.3 6.1 0.00 0.51 0.48 88 1007.3
20260506112524 63 105 5.2 7.0 0.00 0.51 0.48 89 1007.4
20260506111524 63 103 4.3 7.0 0.00 0.51 0.48 89 1007.5
20260506110524 63 122 5.2 10.4 0.00 0.51 0.48 90 1007.5
20260506105524 63 90 6.1 8.7 0.00 0.51 0.48 91 1007.5
20260506104524 62 124 7.0 10.4 0.00 0.51 0.48 92 1007.6
20260506103524 62 109 7.0 14.8 0.00 0.51 0.48 93 1007.5
20260506102524 62 111 6.1 17.4 0.00 0.51 0.48 94 1007.6
20260506101524 61 100 6.1 8.7 0.00 0.51 0.48 95 1007.6
20260506100524 60 119 7.0 11.3 0.00 0.51 0.48 95 1007.7
20260506095524 60 126 6.1 10.4 0.00 0.51 0.48 95 1007.6
20260506094524 60 102 6.1 8.7 0.00 0.51 0.48 95 1007.7
20260506093524 59 106 4.3 4.3 0.04 0.51 0.48 95 1007.5
20260506092524 59 126 4.3 6.1 0.12 0.51 0.48 95 1007.6
20260506091524 59 105 4.3 7.0 0.14 0.51 0.48 95 1007.4
20260506090524 58 72 2.6 7.0 0.16 0.51 0.48 95 1007.2
20260506085524 58 94 7.0 10.4 0.19 0.51 0.48 95 1007.7
20260506084525 58 94 6.1 7.0 0.20 0.51 0.48 95 1007.7
20260506083524 58 110 5.2 7.0 0.16 0.47 0.44 95 1008.4
20260506082524 57 145 2.6 6.1 0.08 0.39 0.36 95 1008.3
20260506081524 57 105 2.6 5.2 0.06 0.37 0.34 95 1007.9
20260506080524 57 102 4.3 6.1 0.04 0.36 0.32 95 1007.6
20260506073524 58 97 5.2 8.7 0.00 0.34 0.28 95 1007.8
20260506072524 58 103 5.2 7.8 0.01 0.35 0.28 95 1007.8
20260506071524 58 79 6.1 7.0 0.01 0.39 0.28 95 1007.7
20260506070524 58 99 7.0 11.3 0.01 0.40 0.28 95 1007.7
20260506061524 57 107 5.2 13.9 0.00 0.42 0.27 95 1008.4
20260506060524 56 116 7.0 8.7 0.00 0.43 0.27 95 1008.4
20260506050524 56 97 5.2 6.1 0.07 0.47 0.27 95 1008.5
20260506044524 57 124 0.9 2.6 0.15 0.47 0.27 94 1009.0
20260506043524 57 70 4.3 5.2 0.17 0.47 0.27 94 1008.4
20260506042524 57 114 0.9 2.6 0.18 0.46 0.26 94 1009.1
20260506041524 57 124 1.7 2.6 0.18 0.45 0.25 94 1009.0
20260506040524 57 58 2.6 4.3 0.14 0.40 0.20 94 1008.5
20260506035524 57 109 2.6 6.1 0.10 0.35 0.15 94 1009.0
20260506034524 57 124 1.7 2.6 0.07 0.32 0.12 94 1009.3
20260506033524 57 138 2.6 4.3 0.06 0.30 0.10 94 1009.2
20260506032524 57 126 1.7 4.3 0.05 0.28 0.08 94 1009.3
20260506031524 57 129 0.9 1.7 0.05 0.27 0.07 94 1009.3
20260506030524 57 101 1.7 2.6 0.05 0.26 0.06 94 1009.4
20260506025524 57 67 0.0 1.7 0.05 0.25 0.05 94 1009.3
20260506024524 57 46 0.9 2.6 0.05 0.25 0.05 94 1009.4
20260506023524 57 26 1.7 2.6 0.04 0.24 0.04 94 1009.5
20260506022524 57 79 5.2 5.2 0.03 0.23 0.03 94 1009.6
20260506021524 57 92 1.7 2.6 0.02 0.22 0.02 94 1009.9
20260506020524 57 88 0.9 1.7 0.01 0.21 0.01 94 1010.0
20260506015524 57 77 1.7 4.3 0.00 0.20 0.00 94 1009.9
20260506014524 57 107 1.7 2.6 0.00 0.20 0.00 94 1009.9
20260506013524 57 130 0.9 2.6 0.00 0.20 0.00 94 1010.2
20260506012524 57 121 2.6 7.8 0.00 0.20 0.00 94 1010.2
20260506011524 57 104 4.3 4.3 0.00 0.20 0.00 94 1009.9
20260506010524 57 94 1.7 2.6 0.00 0.20 0.00 94 1010.0
20260506005524 57 101 1.7 5.2 0.00 0.20 0.00 93 1009.9
20260506004524 57 66 2.6 7.0 0.00 0.20 0.00 93 1009.8
20260506003524 57 79 2.6 4.3 0.00 0.20 0.00 93 1010.1